[[{"header":{"parameterUnit":"m.s-1","parameterCategory":2,"la1":30.2991,"la2":30.254,"lo1":-89.0895,"lo2":-89.0444,"dy":0.0017,"dx":0.0017,"nx":28,"ny":28,"refTime":"2023-07-25T21:00:00:Z","depth":"0","parameterNumber":2,"parameterNumberName":"U-component_of_CURRENTS"},"data":[0,0,0,0,0,0,0,0,0,0,0,0,0,0,0,0,0,0,0,0,0,0,0,0,0,0,0,0,0,0,0,0,0,0,0,0,0,0,0,0,0,0,0,0,0,0,0,0,0,0,0,0,0,0,0,0,0,0,0.4959,0.4959,0,0.494,0.4939,0.4939,0.4946,0.4947,0.4947,0.4948,0.4967,0.4966,0.4966,0,0,0,0,0,0,0,0,0,0,0,0,0,0.4968,0.4968,0.4959,0.4959,0.4959,0.494,0.4939,0.4939,0.4946,0.4947,0.4948,0.4949,0.4967,0.4966,0.4966,0,0,0,0,0,0,0,0,0,0,0,0,0,0.4954,0.4968,0.4959,0.4964,0.4964,0.494,0.4939,0.4939,0.4945,0.4947,0.4948,0.4949,0.4967,0.4966,0.4966,0.4938,0,0,0.4965,0.4964,0,0,0,0,0,0,0,0,0.4955,0.4953,0.4963,0.4964,0.4964,0.495,0.495,0.4942,0.4945,0.4948,0.4948,0.495,0.4967,0.4966,0.4953,0.4939,0.494,0.4965,0.4964,0.4964,0.4964,0,0,0,0,0,0,0,0.4956,0.4954,0.4947,0.4963,0.4964,0.4956,0.4955,0.4947,0.4948,0.4948,0.4949,0.4954,0.4967,0.4953,0.4954,0.494,0.4965,0.4964,0.4964,0.4964,0.4981,0.4981,0,0,0,0,0,0,0.4968,0.4955,0.4948,0.4947,0.4968,0.4955,0.4954,0.495,0.4947,0.4949,0.4953,0.4954,0.4953,0.4954,0.4955,0.4952,0.4964,0.4964,0.4963,0.498,0.4981,0.4982,0,0,0,0,0,0,0.4968,0.4967,0.4949,0.4955,0.4953,0.4954,0.4949,0.4949,0.4941,0.4951,0.4953,0.4947,0.4954,0.4955,0.4961,0.4952,0.4964,0.4963,0.4979,0.498,0.4981,0.4927,0,0,0,0,0,0,0.4968,0.4966,0.4958,0.4955,0.4953,0.4924,0.4949,0.4948,0.4944,0.4946,0.4947,0.495,0.4955,0.4962,0.496,0.4951,0.4963,0.4978,0.498,0.4981,0.4928,0.4926,0.4925,0,0,0,0,0,0.4968,0.494,0.4958,0.4957,0.4944,0.4923,0.492,0.4923,0.4943,0.4924,0.4945,0.495,0.497,0.4961,0.496,0.495,0.4978,0.4979,0.4981,0.4929,0.4927,0.4925,0,0,0,0,0,0,0.4927,0.4939,0.4958,0.4933,0.4932,0.4926,0.4904,0.4921,0.4919,0.4924,0.4946,0.4949,0.4959,0.4965,0.4955,0.4966,0.4979,0.4981,0.494,0.4938,0.4937,0.4932,0.4962,0,0,0,0,0,0.492,0.4908,0.4921,0.4899,0.4896,0.4905,0.4897,0.4904,0.4909,0.4908,0.4915,0.4936,0.4961,0.4958,0.4974,0.496,0.5013,0.4962,0.496,0.4958,0.4957,0.5052,0.5059,0.4987,0.4987,0.4987,0,0,0.4896,0.4904,0.4895,0.4891,0.4887,0.487,0.49,0.488,0.4876,0.4911,0.4895,0.4928,0.4962,0.4962,0.4966,0.4962,0.5006,0.496,0.4958,0.4958,0.5054,0.5061,0.5068,0.4988,0.4988,0.4988,0,0,0.4842,0.485,0.4825,0.4826,0.4829,0.4832,0.4831,0.4829,0.4834,0.4832,0.4876,0.4905,0.491,0.4939,0.4958,0.4956,0.5005,0.4963,0.4929,0.5021,0.5028,0.5034,0.5103,0.5116,0.4948,0.4948,0.4948,0,0.4819,0.4794,0.4811,0.4794,0.4789,0.4817,0.4792,0.4796,0.48,0.4811,0.4822,0.4884,0.4903,0.494,0.494,0.495,0.5009,0.4927,0.5018,0.5026,0.5033,0.5103,0.5118,0.4946,0.4946,0.4946,0.4946,0,0.4756,0.474,0.4718,0.4716,0.471,0.4685,0.4709,0.4708,0.4728,0.4748,0.4787,0.4828,0.4873,0.4883,0.4904,0.4964,0.4991,0.5015,0.5018,0.5037,0.511,0.5126,0.4942,0.4943,0.4944,0.4944,0,0,0.469,0.4679,0.4671,0.4659,0.4669,0.4651,0.4654,0.4662,0.4673,0.4699,0.4724,0.4775,0.4819,0.4847,0.4889,0.4949,0.5045,0.4993,0.4999,0.5051,0.5244,0.5145,0.5155,0.5091,0.5094,0.5096,0.527,0,0.4635,0.4588,0.4603,0.4553,0.4527,0.4566,0.4566,0.4588,0.4621,0.4648,0.4723,0.4766,0.4801,0.4833,0.4901,0.5022,0.5088,0.4995,0.5226,0.5232,0.5135,0.517,0.4892,0.5013,0.5286,0.5289,0.5291,0,0.4568,0.4547,0.4494,0.448,0.4473,0.4458,0.4474,0.4483,0.4551,0.4587,0.4658,0.4725,0.4825,0.4854,0.5066,0.501,0.5121,0.5205,0.5215,0.5152,0.5165,0.5042,0.5034,0.4828,0.5318,0.5316,0.5314,0,0.4502,0.4466,0.442,0.4415,0.4409,0.4402,0.441,0.4461,0.4481,0.4565,0.4603,0.4728,0.4808,0.4968,0.5129,0.5124,0.5355,0.5377,0.5392,0.5387,0.5207,0.518,0.5014,0.5531,0.553,0.553,0.5529,0,0.4435,0.4391,0.4384,0.4356,0.4314,0.4342,0.4325,0.4365,0.4431,0.4464,0.4575,0.4644,0.4847,0.4992,0.514,0.5305,0.5381,0.5393,0.5427,0.5178,0.5148,0.5008,0.4944,0.5536,0.5535,0.5534,0.5533,0,0.436,0.4355,0.43,0.4285,0.4278,0.4253,0.4271,0.4271,0.4353,0.441,0.4446,0.4614,0.4806,0.498,0.5239,0.5309,0.5313,0.5517,0.5191,0.5181,0.4976,0.4921,0.4783,0.4667,0.5571,0.5569,0.5568,0,0.4311,0.4275,0.4243,0.4214,0.4201,0.4176,0.4165,0.4227,0.425,0.4396,0.4429,0.4612,0.4726,0.5028,0.5178,0.5386,0.5252,0.5234,0.5163,0.4913,0.4881,0.4766,0.4671,0.4918,0.4911,0.4906,0.4902,0,0.4215,0.4212,0.4173,0.4127,0.4097,0.4065,0.4069,0.4078,0.4172,0.423,0.4345,0.4446,0.4701,0.4766,0.499,0.5097,0.491,0.5134,0.4963,0.4416,0.4195,0.4114,0.4854,0.4855,0.486,0.4863,0.4866,0.4868,0.4142,0.4105,0.4069,0.4014,0.3985,0.3952,0.3908,0.3943,0.3967,0.4033,0.4204,0.4262,0.4355,0.4631,0.4717,0.4553,0.4671,0.441,0.4391,0.4321,0.4086,0.4707,0.4688,0.4692,0.4695,0.4697,0.47,0,0.4023,0.3998,0.3955,0.3883,0.3822,0.3846,0.3829,0.3782,0.3774,0.3859,0.3933,0.3896,0.3896,0.3968,0.3912,0.3807,0.3724,0.3665,0.34,0.3374,0.3985,0.3825,0.3506,0.3506,0.3506,0.3507,0.3507,0.3507,0.3954,0.3879,0.3862,0.3732,0.3689,0.3589,0.3563,0.3524,0.3541,0.3448,0.3375,0.3403,0.3404,0.3303,0.3127,0.3089,0.2902,0.2754,0.2846,0.3196,0.3261,0.3324,0.3153,0.2698,0.2697,0.2064,0.2059,0.2055]},{"header":{"parameterUnit":"m.s-1","parameterCategory":2,"la1":30.2991,"la2":30.254,"lo1":-89.0895,"lo2":-89.0444,"dy":0.0017,"dx":0.0017,"nx":28,"ny":28,"refTime":"2023-07-25T21:00:00:Z","depth":"0","parameterNumber":3,"parameterNumberName":"V-component_of_CURRENTS"},"data":[0,0,0,0,0,0,0,0,0,0,0,0,0,0,0,0,0,0,0,0,0,0,0,0,0,0,0,0,0,0,0,0,0,0,0,0,0,0,0,0,0,0,0,0,0,0,0,0,0,0,0,0,0,0,0,0,0,0,0.141,0.141,0,0.1428,0.1428,0.1428,0.1407,0.1406,0.1405,0.1404,0.1316,0.1314,0.1313,0,0,0,0,0,0,0,0,0,0,0,0,0,0.1343,0.1344,0.141,0.141,0.141,0.1428,0.1428,0.1428,0.1407,0.1406,0.1405,0.1404,0.1316,0.1314,0.1312,0,0,0,0,0,0,0,0,0,0,0,0,0,0.1368,0.1345,0.141,0.1401,0.1401,0.1428,0.1428,0.1428,0.1407,0.1406,0.1405,0.1403,0.1317,0.1314,0.1312,0.1323,0,0,0.1305,0.1304,0,0,0,0,0,0,0,0,0.1367,0.1371,0.1402,0.1402,0.1401,0.1413,0.1372,0.1387,0.1407,0.1405,0.1404,0.1403,0.1339,0.1335,0.1343,0.1318,0.1315,0.1305,0.1303,0.1302,0.1302,0,0,0,0,0,0,0,0.1365,0.137,0.1417,0.1403,0.1402,0.1392,0.1394,0.1375,0.1377,0.1405,0.1404,0.1405,0.1338,0.1346,0.134,0.1313,0.1305,0.1303,0.1301,0.13,0.1303,0.1304,0,0,0,0,0,0,0.1364,0.1368,0.1417,0.1418,0.138,0.1394,0.1396,0.1411,0.138,0.1375,0.1406,0.1404,0.135,0.1343,0.1337,0.1365,0.1302,0.13,0.1299,0.1301,0.1303,0.1305,0,0,0,0,0,0,0.1363,0.1369,0.1416,0.1392,0.1397,0.1396,0.1413,0.1412,0.142,0.1382,0.1374,0.1415,0.1349,0.134,0.1349,0.136,0.1299,0.1297,0.13,0.1302,0.1304,0.1409,0,0,0,0,0,0,0.1361,0.1369,0.1382,0.1393,0.1398,0.1441,0.1414,0.1413,0.1423,0.142,0.1387,0.1377,0.1347,0.1353,0.1347,0.1356,0.1295,0.1298,0.1301,0.1303,0.1403,0.1414,0.1423,0,0,0,0,0,0.1359,0.1379,0.1383,0.1389,0.1416,0.1443,0.1446,0.144,0.1425,0.144,0.1431,0.1378,0.1365,0.1354,0.1346,0.1354,0.1296,0.13,0.1303,0.1399,0.1412,0.1423,0,0,0,0,0,0,0.135,0.1379,0.1383,0.141,0.143,0.1439,0.1449,0.1448,0.1455,0.1448,0.1409,0.1401,0.1409,0.1374,0.1363,0.1363,0.1317,0.1319,0.1392,0.1404,0.1414,0.1403,0.1293,0,0,0,0,0,0.1358,0.1385,0.1407,0.1429,0.1439,0.1448,0.1457,0.1459,0.1464,0.1465,0.1449,0.1428,0.1418,0.1407,0.1393,0.1399,0.1335,0.1396,0.1406,0.1415,0.1402,0.1336,0.1338,0.1316,0.1316,0.1316,0,0,0.1357,0.1379,0.1391,0.1429,0.1441,0.1474,0.145,0.1472,0.1499,0.1453,0.1483,0.1465,0.143,0.1444,0.1441,0.1414,0.139,0.1419,0.1427,0.1408,0.1339,0.1341,0.1343,0.1318,0.1318,0.1317,0,0,0.1372,0.1393,0.1421,0.1449,0.1478,0.1491,0.1501,0.1524,0.1532,0.1567,0.1538,0.1536,0.1525,0.1507,0.1493,0.1548,0.145,0.1536,0.1572,0.151,0.1511,0.151,0.144,0.1432,0.1536,0.1537,0.1537,0,0.1366,0.1415,0.1432,0.1471,0.1497,0.1504,0.1542,0.1561,0.1586,0.1596,0.1587,0.1578,0.1554,0.1553,0.1577,0.1568,0.1509,0.1532,0.1522,0.152,0.1517,0.1445,0.1435,0.1542,0.1541,0.1541,0.154,0,0.1408,0.145,0.1469,0.1527,0.1559,0.1593,0.1625,0.1655,0.1666,0.1676,0.1688,0.1668,0.1653,0.165,0.1632,0.161,0.1566,0.1546,0.1488,0.1526,0.1447,0.1435,0.155,0.1548,0.1546,0.1545,0,0,0.1381,0.1478,0.1486,0.1528,0.1593,0.1622,0.1678,0.1723,0.1747,0.1762,0.1781,0.1775,0.1747,0.1729,0.1697,0.1647,0.1596,0.1593,0.1587,0.1517,0.1441,0.1418,0.1402,0.1567,0.1566,0.1565,0.1396,0,0.1406,0.1489,0.1535,0.1615,0.1661,0.1701,0.1752,0.1792,0.1815,0.1839,0.181,0.1812,0.1781,0.177,0.1722,0.1639,0.1567,0.1642,0.1418,0.1411,0.1382,0.1389,0.1366,0.1214,0.1383,0.1381,0.1379,0,0.1434,0.149,0.1571,0.1669,0.1691,0.1736,0.181,0.1857,0.189,0.1904,0.1897,0.1871,0.1831,0.1785,0.1637,0.1685,0.1561,0.148,0.1471,0.1398,0.1366,0.1202,0.1184,0.1011,0.136,0.1361,0.1363,0,0.1413,0.1517,0.1583,0.1618,0.1723,0.176,0.1809,0.1866,0.1906,0.1929,0.1944,0.1897,0.1868,0.1732,0.1604,0.1602,0.1421,0.1394,0.1243,0.1239,0.1148,0.114,0.0928,0.1238,0.1239,0.1239,0.124,0,0.1432,0.1484,0.1575,0.1614,0.1684,0.1755,0.1819,0.1868,0.1922,0.1964,0.1959,0.1969,0.1848,0.1753,0.1607,0.1409,0.1417,0.1235,0.1192,0.1187,0.1185,0.0972,0.0918,0.1233,0.1234,0.1236,0.1237,0,0.1413,0.1473,0.155,0.1651,0.168,0.1728,0.183,0.1875,0.1928,0.1978,0.1984,0.2001,0.1898,0.1761,0.1551,0.1411,0.1129,0.1134,0.1144,0.1105,0.0807,0.0764,0.0511,0.0478,0.0926,0.0924,0.0923,0,0.1414,0.1453,0.1559,0.1593,0.1639,0.1714,0.177,0.1862,0.1916,0.1999,0.2021,0.197,0.1973,0.1697,0.1445,0.118,0.1047,0.0945,0.0934,0.0774,0.0692,0.066,0.0651,0.0847,0.0845,0.0843,0.0842,0,0.1407,0.1441,0.1499,0.1571,0.1631,0.1712,0.1796,0.1845,0.1952,0.2018,0.2092,0.2111,0.1901,0.1688,0.1354,0.1149,0.0855,0.0903,0.0723,0.0599,0.056,0.0516,0.0973,0.0829,0.083,0.0831,0.0832,0.0832,0.1383,0.1413,0.1477,0.1542,0.1616,0.1697,0.1746,0.1855,0.196,0.2087,0.2136,0.2215,0.1902,0.1481,0.1206,0.066,0.0726,0.0484,0.0436,0.0411,0.0402,0.0836,0.0666,0.0666,0.0666,0.0667,0.0667,0,0.1341,0.1381,0.1443,0.1522,0.1583,0.1639,0.1756,0.182,0.1938,0.213,0.2237,0.2137,0.1738,0.1304,0.0599,0.0255,0.0171,0.0067,-0.0005,0.0007,0.0349,0.0369,0.0146,0.0146,0.0146,0.0146,0.0147,0.0147,0.1315,0.1346,0.1385,0.1458,0.1517,0.159,0.1645,0.1777,0.1933,0.2127,0.2217,0.2284,0.1898,0.0754,-0.0042,-0.0203,-0.0359,-0.0417,-0.0464,-0.0266,-0.0232,-0.0198,-0.0196,-0.0534,-0.0535,-0.078,-0.0783,-0.0785]}],[{"header":{"parameterUnit":"m.s-1","parameterCategory":2,"la1":30.2991,"la2":30.254,"lo1":-89.0895,"lo2":-89.0444,"dy":0.0017,"dx":0.0017,"nx":28,"ny":28,"refTime":"2023-07-25T21:00:00:Z","depth":"2","parameterNumber":2,"parameterNumberName":"U-component_of_CURRENTS"},"data":[0,0,0,0,0,0,0,0,0,0,0,0,0,0,0,0,0,0,0,0,0,0,0,0,0,0,0,0,0,0,0,0,0,0,0,0,0,0,0,0,0,0,0,0,0,0,0,0,0,0,0,0,0,0,0,0,0,0,0.3541,0.3542,0,0.3612,0.3613,0.3613,0.3626,0.3626,0.3625,0.3625,0.362,0.362,0.362,0,0,0,0,0,0,0,0,0,0,0,0,0,0.343,0.3432,0.3541,0.3542,0.3543,0.3612,0.3613,0.3613,0.3626,0.3626,0.3625,0.3625,0.362,0.362,0.362,0,0,0,0,0,0,0,0,0,0,0,0,0,0.3484,0.3433,0.3541,0.3561,0.3563,0.3612,0.3613,0.3614,0.3626,0.3626,0.3625,0.3625,0.362,0.362,0.362,0.3629,0,0,0.3621,0.3621,0,0,0,0,0,0,0,0,0.3481,0.3488,0.3557,0.3559,0.3563,0.3613,0.3572,0.3616,0.3626,0.3598,0.3625,0.3625,0.3613,0.3614,0.3624,0.3629,0.3629,0.3621,0.3621,0.3621,0.3621,0,0,0,0,0,0,0,0.3477,0.3485,0.3566,0.3558,0.3562,0.3571,0.3578,0.3581,0.3603,0.3601,0.3603,0.3617,0.3614,0.3624,0.3624,0.3629,0.3621,0.3621,0.3621,0.3621,0.3682,0.3684,0,0,0,0,0,0,0.3476,0.3482,0.3563,0.3568,0.3524,0.3574,0.3581,0.3594,0.3605,0.3608,0.3617,0.3617,0.3624,0.3624,0.3624,0.3668,0.3621,0.3621,0.3621,0.3681,0.3683,0.3684,0,0,0,0,0,0,0.3473,0.3482,0.3561,0.3529,0.354,0.3576,0.3591,0.3596,0.3627,0.3618,0.3619,0.3646,0.3624,0.3624,0.3642,0.3666,0.3621,0.3622,0.3679,0.3682,0.3684,0.3734,0,0,0,0,0,0,0.347,0.3481,0.3495,0.3529,0.3542,0.3571,0.3592,0.3598,0.3637,0.3638,0.3643,0.3641,0.3623,0.3642,0.3642,0.3665,0.3622,0.3677,0.368,0.3683,0.373,0.3737,0.3744,0,0,0,0,0,0.3465,0.3471,0.3495,0.3506,0.3559,0.3571,0.3577,0.36,0.3639,0.3632,0.366,0.3642,0.366,0.3643,0.3643,0.3667,0.3676,0.3679,0.3683,0.3727,0.3736,0.3743,0,0,0,0,0,0,0.343,0.3475,0.3501,0.3522,0.3543,0.3574,0.3585,0.3619,0.3641,0.3658,0.3659,0.3658,0.369,0.3673,0.3655,0.3695,0.3667,0.367,0.37,0.3709,0.3715,0.3716,0.3622,0,0,0,0,0,0.3433,0.3449,0.3489,0.3506,0.3521,0.3567,0.3585,0.3605,0.3632,0.3644,0.365,0.3671,0.3703,0.3701,0.3712,0.3725,0.3744,0.3743,0.375,0.3755,0.3757,0.3829,0.3842,0.3696,0.3696,0.3696,0,0,0.3425,0.3455,0.3464,0.3501,0.3528,0.3544,0.3575,0.3603,0.3626,0.3639,0.3666,0.3699,0.3717,0.374,0.3751,0.3726,0.3807,0.376,0.3764,0.3763,0.3834,0.3848,0.3861,0.3698,0.3698,0.3697,0,0,0.3407,0.3446,0.3451,0.347,0.3514,0.354,0.3556,0.3597,0.362,0.3651,0.3692,0.3741,0.3748,0.378,0.3799,0.3851,0.3853,0.3855,0.3872,0.3942,0.3955,0.3966,0.4006,0.4021,0.3842,0.3842,0.3842,0,0.3401,0.3417,0.3451,0.3463,0.3482,0.3543,0.3553,0.3588,0.3629,0.3656,0.3653,0.375,0.377,0.3841,0.3867,0.3867,0.3898,0.3839,0.3952,0.3963,0.3974,0.4012,0.4028,0.3845,0.3845,0.3845,0.3844,0,0.3384,0.3404,0.3408,0.3447,0.3466,0.3483,0.3536,0.3565,0.3613,0.3653,0.3727,0.3771,0.3822,0.3852,0.3877,0.3974,0.3969,0.3966,0.393,0.3992,0.4028,0.4043,0.3849,0.3848,0.3847,0.3847,0,0,0.3354,0.339,0.3393,0.3401,0.3463,0.3468,0.3519,0.357,0.3616,0.3667,0.3721,0.3815,0.386,0.3888,0.3938,0.4007,0.4124,0.4022,0.4024,0.4059,0.4269,0.3957,0.3943,0.4148,0.4151,0.4154,0.4262,0,0.3335,0.3337,0.3368,0.3377,0.3384,0.3447,0.3481,0.3542,0.3602,0.3662,0.3757,0.3824,0.3868,0.3909,0.3992,0.4107,0.4167,0.4094,0.4205,0.4207,0.3921,0.3951,0.3656,0.3699,0.4277,0.4279,0.4281,0,0.3311,0.3315,0.3314,0.334,0.335,0.337,0.3437,0.3476,0.359,0.3638,0.3733,0.3808,0.3948,0.3958,0.4165,0.4121,0.4198,0.4269,0.4275,0.3972,0.3921,0.3732,0.3705,0.4306,0.4304,0.4302,0.4301,0,0.3258,0.3276,0.3268,0.3279,0.3324,0.3341,0.3377,0.3473,0.3508,0.3635,0.3679,0.3837,0.3916,0.4061,0.4211,0.4207,0.4413,0.4414,0.4198,0.4178,0.3936,0.3885,0.4536,0.4536,0.4536,0.4535,0.4535,0,0.3224,0.3217,0.3242,0.3238,0.3236,0.3291,0.3316,0.338,0.3474,0.3521,0.3666,0.3729,0.3952,0.4087,0.422,0.4235,0.4417,0.4194,0.4178,0.3938,0.3889,0.4421,0.4406,0.4539,0.4539,0.4538,0.4537,0,0.3169,0.3189,0.3175,0.3203,0.321,0.321,0.3257,0.3276,0.3386,0.3454,0.3495,0.3679,0.3827,0.4008,0.4236,0.4186,0.4276,0.4236,0.3909,0.3845,0.3997,0.3984,0.3988,0.3977,0.3969,0.3961,0.3955,0,0.314,0.3127,0.313,0.311,0.3121,0.3129,0.3132,0.3223,0.3244,0.341,0.343,0.3592,0.3645,0.3806,0.3777,0.3846,0.4106,0.3584,0.3475,0.3952,0.3939,0.394,0.3939,0.3221,0.3209,0.32,0.3192,0,0.3074,0.3079,0.3061,0.3015,0.3001,0.2982,0.2998,0.3006,0.3119,0.3164,0.3246,0.3304,0.3366,0.3242,0.3248,0.3275,0.3531,0.3373,0.4027,0.3337,0.3218,0.3208,0.3236,0.3107,0.3116,0.3122,0.3126,0.313,0.3012,0.2973,0.2935,0.2878,0.2861,0.2815,0.2757,0.2788,0.2782,0.2772,0.2924,0.2888,0.289,0.2676,0.2656,0.2663,0.2871,0.2834,0.2872,0.2917,0.274,0.2604,0.2348,0.2352,0.2355,0.2358,0.2361,0,0.2867,0.2833,0.2788,0.2686,0.2592,0.2661,0.2627,0.2531,0.2457,0.2484,0.2433,0.2167,0.2046,0.2201,0.1998,0.1916,0.2001,0.1942,0.208,0.2159,0.2231,0.2029,0.1445,0.1443,0.1441,0.1439,0,0,0.2779,0.2662,0.262,0.2417,0.2375,0.2241,0.2205,0.2092,0.2065,0.1898,0.1838,0.1821,0.2016,0.1648,0.159,0.1523,0.1856,0.1477,0.2198,0.2435,0.2506,0.2708,0.2476,0,0,0,0,0]},{"header":{"parameterUnit":"m.s-1","parameterCategory":2,"la1":30.2991,"la2":30.254,"lo1":-89.0895,"lo2":-89.0444,"dy":0.0017,"dx":0.0017,"nx":28,"ny":28,"refTime":"2023-07-25T21:00:00:Z","depth":"2","parameterNumber":3,"parameterNumberName":"V-component_of_CURRENTS"},"data":[0,0,0,0,0,0,0,0,0,0,0,0,0,0,0,0,0,0,0,0,0,0,0,0,0,0,0,0,0,0,0,0,0,0,0,0,0,0,0,0,0,0,0,0,0,0,0,0,0,0,0,0,0,0,0,0,0,0,0.0084,0.0084,0,0.0053,0.0053,0.0053,-0.0015,-0.0016,-0.0017,-0.0019,-0.0168,-0.017,-0.0173,0,0,0,0,0,0,0,0,0,0,0,0,0,0.0067,0.0067,0.0084,0.0084,0.0083,0.0053,0.0053,0.0053,-0.0015,-0.0016,-0.0018,-0.0019,-0.0167,-0.017,-0.0173,0,0,0,0,0,0,0,0,0,0,0,0,0,0.0059,0.0068,0.0084,0.0047,0.0043,0.0054,0.0053,0.0052,-0.0014,-0.0016,-0.0018,-0.002,-0.0166,-0.017,-0.0174,-0.0159,0,0,-0.0186,-0.0188,0,0,0,0,0,0,0,0,0.0059,0.0059,0.0052,0.0049,0.0045,0.0021,-0.0008,-0.0024,-0.0014,0.0007,-0.0019,-0.0021,-0.0114,-0.0122,-0.0122,-0.0166,-0.0172,-0.0186,-0.0189,-0.0191,-0.0192,0,0,0,0,0,0,0,0.006,0.006,0.0071,0.0052,0.0048,0.0025,0.0022,-0.0011,-0.0044,0.0005,0.0,-0.0002,-0.0117,-0.0118,-0.0127,-0.0174,-0.0186,-0.019,-0.0193,-0.0194,-0.021,-0.0208,0,0,0,0,0,0,0.0068,0.0061,0.0072,0.007,0.0048,0.0027,0.0024,0.0031,-0.0042,-0.0053,0.0,-0.0005,-0.011,-0.0122,-0.0132,-0.0081,-0.0191,-0.0195,-0.0197,-0.0212,-0.021,-0.0207,0,0,0,0,0,0,0.0068,0.007,0.0074,0.0064,0.0063,0.003,0.0038,0.0031,0.0036,-0.0044,-0.0059,0.0012,-0.0112,-0.0127,-0.0142,-0.009,-0.0196,-0.02,-0.0214,-0.0211,-0.0208,-0.0005,0,0,0,0,0,0,0.0068,0.007,0.0088,0.0066,0.0064,0.0104,0.004,0.0032,0.0037,0.0031,-0.0038,-0.0055,-0.0115,-0.0135,-0.0146,-0.0097,-0.0203,-0.0217,-0.0213,-0.0209,-0.0014,0.0005,0.0021,0,0,0,0,0,0.0067,0.0105,0.009,0.0091,0.0087,0.0106,0.0105,0.0072,0.004,0.0065,0.0013,-0.0052,-0.0119,-0.0136,-0.0149,-0.0101,-0.0219,-0.0214,-0.021,-0.0022,0.0001,0.0021,0,0,0,0,0,0,0.0111,0.0102,0.0084,0.0117,0.012,0.0095,0.0114,0.0091,0.0073,0.0061,-0.0023,-0.004,-0.0031,-0.0096,-0.0112,-0.0097,-0.0181,-0.0179,-0.0033,-0.0013,0.0005,0.0011,-0.0207,0,0,0,0,0,0.013,0.0151,0.014,0.0168,0.0173,0.0147,0.0152,0.0135,0.0111,0.0101,0.0052,-0.0,-0.002,-0.0041,-0.0075,-0.0065,-0.013,-0.0046,-0.0028,-0.0013,-0.0017,-0.0048,-0.0033,-0.0192,-0.0192,-0.0192,0,0,0.0154,0.0152,0.0163,0.0179,0.0173,0.0206,0.0146,0.0168,0.0194,0.0087,0.0105,0.0064,-0.0003,0.0015,0.0011,-0.0036,0.0002,-0.0007,0.0007,-0.0006,-0.0041,-0.0026,-0.0012,-0.0189,-0.019,-0.019,0,0,0.0214,0.0213,0.0249,0.0263,0.027,0.0262,0.0276,0.0265,0.026,0.0274,0.0213,0.0206,0.0156,0.0135,0.0113,0.0204,0.0102,0.0191,0.028,0.0253,0.0266,0.0276,0.0231,0.0236,0.0193,0.0194,0.0194,0,0.0238,0.0284,0.0267,0.0309,0.0329,0.0295,0.0347,0.035,0.0336,0.0344,0.0298,0.0266,0.0216,0.0246,0.0277,0.0247,0.02,0.0213,0.0278,0.0287,0.0294,0.0244,0.0247,0.0204,0.0203,0.0202,0.0201,0,0.0323,0.0363,0.0391,0.0428,0.0455,0.0496,0.0497,0.052,0.05,0.0491,0.0512,0.0453,0.0424,0.0426,0.0376,0.0419,0.036,0.0314,0.023,0.0323,0.0264,0.0263,0.0219,0.0215,0.0212,0.0209,0,0,0.0358,0.0433,0.0443,0.0481,0.0521,0.0551,0.0611,0.0653,0.0688,0.0669,0.0708,0.0687,0.0641,0.0612,0.0561,0.0541,0.0566,0.0456,0.045,0.0421,0.0491,0.0401,0.0389,0.0532,0.0533,0.0533,0.0436,0,0.0425,0.0523,0.0547,0.0647,0.0698,0.0705,0.0764,0.0797,0.08,0.083,0.0788,0.0798,0.0717,0.0711,0.0685,0.0602,0.0569,0.0594,0.0394,0.0388,0.0306,0.0388,0.0373,0.0281,0.0434,0.0434,0.0433,0,0.0497,0.0553,0.066,0.0754,0.0777,0.0831,0.091,0.096,0.0996,0.0996,0.0995,0.0949,0.094,0.0844,0.0737,0.0755,0.0633,0.0554,0.0547,0.0384,0.0296,0.0207,0.0271,0.043,0.043,0.0431,0.0431,0,0.0522,0.0634,0.072,0.0752,0.0851,0.09,0.095,0.1007,0.1057,0.1099,0.1126,0.109,0.1068,0.0944,0.078,0.0756,0.0641,0.0581,0.038,0.0371,0.0276,0.0257,0.0483,0.0483,0.0484,0.0484,0.0484,0,0.0582,0.065,0.0736,0.0783,0.0887,0.0941,0.1043,0.1087,0.1157,0.1233,0.1202,0.1242,0.1089,0.1004,0.0835,0.0616,0.0675,0.0403,0.0348,0.0346,0.0336,0.0388,0.0378,0.048,0.0481,0.0482,0.0482,0,0.0601,0.0659,0.0757,0.0864,0.0902,0.0971,0.1094,0.1167,0.1227,0.1324,0.1344,0.1351,0.1247,0.107,0.0872,0.0676,0.0486,0.038,0.0382,0.0328,0.0213,0.0215,0.0145,0.0141,0.0138,0.0135,0.0133,0,0.0622,0.0675,0.0795,0.0852,0.0903,0.1009,0.1091,0.1186,0.1272,0.1395,0.1452,0.1402,0.1379,0.1066,0.0732,0.0414,0.0424,0.0174,0.0115,0.023,0.0182,0.019,0.0196,0.0076,0.0073,0.0071,0.0069,0,0.0656,0.0692,0.0772,0.0877,0.0968,0.1086,0.1209,0.1287,0.1416,0.1519,0.1641,0.1641,0.1333,0.1011,0.0561,0.0355,0.0229,0.0115,0.026,0.0158,0.0154,0.0111,0.0122,0.0051,0.0053,0.0054,0.0055,0.0056,0.0671,0.0721,0.0812,0.0915,0.1021,0.1156,0.1247,0.14,0.1561,0.1678,0.1676,0.163,0.1272,0.0653,0.0359,0.0054,0.0043,-0.0093,-0.0081,-0.0069,-0.0065,-0.0075,-0.0222,-0.0221,-0.0221,-0.0221,-0.0221,0,0.0686,0.075,0.0845,0.0973,0.1081,0.1136,0.1325,0.144,0.1633,0.1675,0.1705,0.1318,0.0947,0.0633,0.0122,-0.02,-0.0166,-0.0247,-0.0149,-0.0133,-0.0118,-0.011,-0.0282,-0.0282,-0.0282,-0.0282,0,0,0.07,0.0781,0.0833,0.0997,0.1083,0.1219,0.1321,0.1524,0.1614,0.1663,0.1577,0.1318,0.0966,0.0556,0.0175,-0.0033,0.0006,-0.0062,0.0,0.0173,0.0194,-0.0037,-0.0011,0,0,0,0,0]}],[{"header":{"parameterUnit":"m.s-1","parameterCategory":2,"la1":30.2991,"la2":30.254,"lo1":-89.0895,"lo2":-89.0444,"dy":0.0017,"dx":0.0017,"nx":28,"ny":28,"refTime":"2023-07-25T21:00:00:Z","depth":"4","parameterNumber":2,"parameterNumberName":"U-component_of_CURRENTS"},"data":[0,0,0,0,0,0,0,0,0,0,0,0,0,0,0,0,0,0,0,0,0,0,0,0,0,0,0,0,0,0,0,0,0,0,0,0,0,0,0,0,0,0,0,0,0,0,0,0,0,0,0,0,0,0,0,0,0,0,0.0338,0.0339,0,0.0408,0.0409,0.041,0.0483,0.0484,0.0484,0.0485,0.0613,0.0616,0.0619,0,0,0,0,0,0,0,0,0,0,0,0,0,0.0321,0.0321,0.0338,0.0339,0.0339,0.0408,0.0409,0.041,0.0483,0.0484,0.0484,0.0485,0.0612,0.0615,0.0619,0,0,0,0,0,0,0,0,0,0,0,0,0,0.0357,0.0321,0.0338,0.038,0.0384,0.0407,0.0409,0.0411,0.0483,0.0484,0.0485,0.0485,0.0611,0.0615,0.0619,0.0628,0,0,0.0632,0.0634,0,0,0,0,0,0,0,0,0.0355,0.0358,0.0373,0.0377,0.0382,0.0433,0.045,0.0485,0.0483,0.045,0.0485,0.0486,0.0555,0.0564,0.0581,0.0634,0.064,0.0633,0.0635,0.0637,0.0638,0,0,0,0,0,0,0,0.0352,0.0356,0.0371,0.0374,0.0379,0.0413,0.0419,0.0457,0.0501,0.0453,0.0457,0.0457,0.0558,0.0576,0.0584,0.0642,0.0633,0.0636,0.0639,0.0641,0.0836,0.0838,0,0,0,0,0,0,0.033,0.0353,0.0368,0.0372,0.0365,0.0412,0.0419,0.042,0.05,0.0511,0.0457,0.046,0.0568,0.0579,0.0589,0.0741,0.0637,0.0641,0.0644,0.0833,0.0836,0.0839,0,0,0,0,0,0,0.033,0.0331,0.0365,0.0361,0.0367,0.041,0.0411,0.0421,0.0489,0.0501,0.0515,0.052,0.057,0.0583,0.0666,0.0741,0.0643,0.0647,0.083,0.0834,0.0838,0.0957,0,0,0,0,0,0,0.0329,0.0331,0.0347,0.0359,0.0366,0.0407,0.041,0.0421,0.0482,0.049,0.0559,0.0569,0.0571,0.066,0.067,0.0745,0.065,0.0827,0.0832,0.0837,0.095,0.0964,0.0977,0,0,0,0,0,0.0328,0.0335,0.0347,0.035,0.0379,0.0408,0.0417,0.0453,0.0485,0.052,0.0572,0.0569,0.0698,0.0665,0.0677,0.0755,0.0824,0.083,0.0836,0.0944,0.0961,0.0977,0,0,0,0,0,0,0.034,0.0343,0.0357,0.0367,0.0399,0.0419,0.0463,0.0485,0.0555,0.0579,0.0602,0.0616,0.0713,0.0715,0.0679,0.0823,0.0762,0.077,0.0839,0.0856,0.087,0.0864,0.0654,0,0,0,0,0,0.0346,0.0355,0.037,0.0386,0.0414,0.0453,0.048,0.05,0.0546,0.0581,0.0636,0.069,0.0738,0.0783,0.0817,0.0903,0.0848,0.0959,0.0973,0.0985,0.0988,0.094,0.0948,0.0858,0.0858,0.0858,0,0,0.0357,0.0358,0.0368,0.0391,0.0433,0.0477,0.0477,0.0529,0.0573,0.0582,0.07,0.0741,0.0768,0.0859,0.0904,0.088,0.0987,0.0992,0.1002,0.0998,0.0946,0.0955,0.0962,0.0862,0.0862,0.0861,0,0,0.0377,0.0397,0.042,0.045,0.0497,0.052,0.0548,0.0608,0.0655,0.075,0.0766,0.084,0.0948,0.0964,0.0987,0.1094,0.1051,0.1137,0.1219,0.1174,0.118,0.1184,0.1139,0.1139,0.1155,0.1155,0.1155,0,0.0391,0.042,0.0436,0.0472,0.0504,0.0551,0.0598,0.0647,0.0727,0.0774,0.0807,0.0958,0.0985,0.1063,0.1119,0.1124,0.1098,0.1156,0.1189,0.1192,0.1194,0.1147,0.1144,0.1162,0.1161,0.116,0.116,0,0.0425,0.0469,0.0498,0.0555,0.0589,0.0643,0.0692,0.0771,0.0851,0.0893,0.1018,0.1064,0.1161,0.1186,0.1204,0.1263,0.1239,0.1199,0.114,0.121,0.1156,0.1152,0.1171,0.1169,0.1167,0.1165,0,0,0.042,0.0502,0.0524,0.057,0.0639,0.0672,0.0763,0.0848,0.0931,0.103,0.1128,0.1234,0.1293,0.1321,0.1349,0.1327,0.1339,0.1309,0.1304,0.1253,0.1257,0.12,0.1189,0.1318,0.1318,0.1318,0.1215,0,0.0462,0.0532,0.056,0.0661,0.0716,0.0776,0.0867,0.0941,0.1026,0.1137,0.1189,0.1324,0.1333,0.1437,0.1408,0.136,0.1333,0.1371,0.1206,0.1201,0.1132,0.1184,0.1318,0.1211,0.121,0.1209,0.1208,0,0.0489,0.054,0.0627,0.0736,0.0773,0.0861,0.1002,0.1092,0.1217,0.1295,0.1401,0.1449,0.1514,0.1496,0.1424,0.1463,0.139,0.1314,0.1307,0.1206,0.1136,0.1124,0.1199,0.12,0.12,0.1201,0.1201,0,0.048,0.0586,0.0659,0.0694,0.0826,0.0926,0.1053,0.1181,0.127,0.145,0.1514,0.1573,0.164,0.1552,0.1438,0.1467,0.1274,0.1275,0.1132,0.1126,0.1151,0.1147,0.1185,0.1185,0.1186,0.1186,0.1186,0,0.0486,0.0559,0.0695,0.0753,0.0905,0.1,0.119,0.1315,0.1466,0.1514,0.1653,0.1641,0.1661,0.1548,0.1439,0.1261,0.1275,0.115,0.1099,0.1207,0.1211,0.1147,0.1144,0.1182,0.1183,0.1184,0.1184,0,0.0447,0.0532,0.0635,0.082,0.0913,0.1046,0.1311,0.1409,0.1587,0.1639,0.1717,0.1733,0.1616,0.1527,0.1351,0.1267,0.1095,0.101,0.1124,0.1079,0.099,0.0994,0.0907,0.0904,0.0902,0.09,0.0898,0,0.0434,0.0483,0.0685,0.0784,0.0902,0.1129,0.1273,0.1494,0.1522,0.1597,0.1543,0.155,0.1506,0.1221,0.1154,0.0983,0.0941,0.0907,0.0989,0.1004,0.0962,0.0971,0.0979,0.0894,0.0894,0.0893,0.0893,0,0.0413,0.0485,0.0578,0.0788,0.0964,0.1108,0.1296,0.1282,0.1412,0.1544,0.1401,0.1369,0.1213,0.1112,0.1015,0.0858,0.0982,0.0883,0.0889,0.0966,0.0987,0.095,0.0961,0.0884,0.0886,0.0886,0.0887,0,0.0412,0.0449,0.0596,0.0753,0.0974,0.1034,0.1129,0.1146,0.1227,0.1236,0.1135,0.1099,0.1125,0.1031,0.0866,0.081,0.0821,0.0832,0.0841,0.085,0.0882,0.0905,0.0733,0,0,0,0,0,0.0396,0.0418,0.0555,0.0703,0.0907,0.1013,0.1103,0.1135,0.1148,0.1026,0.1105,0.0949,0.0871,0.0841,0.0765,0.0814,0.0797,0.0726,0.0809,0.0839,0.0848,0.0894,0,0,0,0,0,0,0.0385,0.0492,0.0507,0.0659,0.0731,0.0912,0.0946,0.0929,0.0851,0.0869,0.0808,0.0927,0.0825,0.0891,0.0753,0.0749,0.0792,0.0736,0.0735,0.0834,0.0842,0.085,0.0899,0,0,0,0,0]},{"header":{"parameterUnit":"m.s-1","parameterCategory":2,"la1":30.2991,"la2":30.254,"lo1":-89.0895,"lo2":-89.0444,"dy":0.0017,"dx":0.0017,"nx":28,"ny":28,"refTime":"2023-07-25T21:00:00:Z","depth":"4","parameterNumber":3,"parameterNumberName":"V-component_of_CURRENTS"},"data":[0,0,0,0,0,0,0,0,0,0,0,0,0,0,0,0,0,0,0,0,0,0,0,0,0,0,0,0,0,0,0,0,0,0,0,0,0,0,0,0,0,0,0,0,0,0,0,0,0,0,0,0,0,0,0,0,0,0,0.0211,0.0211,0,0.0147,0.0146,0.0145,0.0135,0.0136,0.0137,0.0138,-0.0016,-0.0021,-0.0026,0,0,0,0,0,0,0,0,0,0,0,0,0,0.0249,0.0248,0.0211,0.0211,0.0211,0.0147,0.0146,0.0145,0.0135,0.0136,0.0137,0.0139,-0.0015,-0.0021,-0.0027,0,0,0,0,0,0,0,0,0,0,0,0,0,0.0208,0.0248,0.0211,0.0202,0.0201,0.0148,0.0146,0.0144,0.0134,0.0136,0.0138,0.0139,-0.0013,-0.002,-0.0028,-0.0108,0,0,-0.0051,-0.0055,0,0,0,0,0,0,0,0,0.0211,0.0206,0.0204,0.0203,0.0202,0.0156,0.0103,0.0057,0.0134,0.0154,0.0138,0.014,0.0035,0.0024,0.0001,-0.0115,-0.0122,-0.0052,-0.0057,-0.006,-0.0062,0,0,0,0,0,0,0,0.0214,0.0208,0.018,0.0204,0.0202,0.0176,0.0172,0.0094,0.008,0.0152,0.0153,0.0154,0.0033,0.0009,-0.0003,-0.0124,-0.0052,-0.0059,-0.0063,-0.0066,-0.0335,-0.0338,0,0,0,0,0,0,0.0235,0.0211,0.0182,0.0179,0.0217,0.0175,0.017,0.0164,0.0083,0.0074,0.0153,0.0154,0.0021,0.0006,-0.0008,-0.0116,-0.006,-0.0067,-0.0071,-0.0333,-0.0336,-0.0338,0,0,0,0,0,0,0.0236,0.0232,0.0185,0.0199,0.0192,0.0173,0.0166,0.0162,0.0151,0.0085,0.0074,0.0149,0.0022,0.0003,-0.0083,-0.0121,-0.007,-0.0077,-0.033,-0.0334,-0.0337,-0.0327,0,0,0,0,0,0,0.0237,0.0233,0.0236,0.02,0.0192,0.0162,0.0165,0.016,0.0152,0.0153,0.0077,0.0065,0.0022,-0.0071,-0.009,-0.0131,-0.0083,-0.0326,-0.0331,-0.0336,-0.0324,-0.033,-0.0335,0,0,0,0,0,0.0238,0.0241,0.0236,0.0233,0.0196,0.0162,0.0155,0.0143,0.015,0.014,0.0081,0.0068,-0.0115,-0.0079,-0.0101,-0.0145,-0.0324,-0.033,-0.0336,-0.0321,-0.0328,-0.0334,0,0,0,0,0,0,0.0256,0.0239,0.0234,0.023,0.0203,0.0163,0.0162,0.0146,0.0092,0.009,0.0033,0.0013,-0.0077,-0.0119,-0.0078,-0.0239,-0.0222,-0.0232,-0.0204,-0.0211,-0.0217,-0.0168,-0.009,0,0,0,0,0,0.0261,0.0261,0.0233,0.0228,0.0223,0.019,0.0178,0.016,0.0112,0.0093,0.0035,-0.004,-0.0124,-0.0167,-0.0244,-0.0334,-0.0343,-0.0379,-0.0384,-0.0388,-0.0367,-0.042,-0.0426,-0.0357,-0.0357,-0.0357,0,0,0.0269,0.0259,0.026,0.0232,0.0215,0.0188,0.0186,0.0164,0.0131,0.0078,0.0011,-0.0061,-0.0152,-0.0251,-0.0296,-0.0286,-0.0417,-0.0395,-0.0397,-0.0374,-0.0426,-0.0432,-0.0438,-0.0361,-0.036,-0.036,0,0,0.0277,0.0274,0.0275,0.025,0.0224,0.0194,0.0192,0.0143,0.0121,0.0039,-0.0013,-0.0097,-0.0221,-0.0292,-0.0345,-0.0429,-0.0442,-0.0467,-0.0459,-0.0512,-0.0516,-0.052,-0.0543,-0.0549,-0.0471,-0.0471,-0.0471,0,0.0285,0.0279,0.0266,0.0249,0.0233,0.02,0.018,0.0139,0.0061,0.0028,0.0023,-0.0168,-0.0238,-0.0361,-0.0389,-0.0438,-0.0457,-0.0421,-0.0513,-0.0518,-0.0522,-0.0545,-0.0552,-0.0471,-0.0471,-0.0471,-0.0471,0,0.0281,0.0276,0.0275,0.0242,0.0214,0.0193,0.0142,0.01,0.0064,0.0014,-0.0097,-0.0199,-0.0298,-0.0357,-0.0398,-0.0488,-0.0488,-0.0508,-0.0481,-0.0527,-0.055,-0.0557,-0.0471,-0.0471,-0.0471,-0.0471,0,0,0.0305,0.0279,0.0281,0.0269,0.0211,0.0188,0.013,0.0068,0.0035,-0.0057,-0.0113,-0.0263,-0.0297,-0.0358,-0.0434,-0.0489,-0.0543,-0.0505,-0.0508,-0.0499,-0.0638,-0.0557,-0.0557,-0.0578,-0.0579,-0.058,-0.064,0,0.0309,0.0293,0.0268,0.0237,0.0225,0.0171,0.0126,0.0056,-0.0006,-0.0075,-0.0177,-0.0256,-0.0305,-0.0348,-0.0417,-0.0521,-0.0561,-0.0523,-0.0619,-0.0621,-0.052,-0.0563,-0.0585,-0.0645,-0.0647,-0.0648,-0.0649,0,0.0309,0.0303,0.0291,0.0247,0.0239,0.0215,0.0145,0.01,-0.0004,-0.0051,-0.0145,-0.0221,-0.0332,-0.0348,-0.051,-0.0484,-0.0543,-0.061,-0.0615,-0.0538,-0.0553,-0.0595,-0.0662,-0.0661,-0.066,-0.0659,-0.0659,0,0.0345,0.0311,0.0312,0.0296,0.0244,0.0234,0.0209,0.0118,0.01,-0.001,-0.0042,-0.0197,-0.0252,-0.0369,-0.0495,-0.0505,-0.065,-0.0685,-0.0665,-0.066,-0.0715,-0.071,-0.0764,-0.0764,-0.0763,-0.0763,-0.0763,0,0.0349,0.0346,0.0342,0.035,0.0346,0.0294,0.0285,0.0228,0.0171,0.012,0.0006,-0.0074,-0.0255,-0.0368,-0.0485,-0.0584,-0.0636,-0.0652,-0.0671,-0.0713,-0.0707,-0.072,-0.0714,-0.0766,-0.0765,-0.0765,-0.0764,0,0.0363,0.0367,0.0371,0.0364,0.0374,0.0374,0.0382,0.0362,0.0311,0.0243,0.0223,0.0041,-0.0121,-0.0277,-0.0479,-0.054,-0.0663,-0.0675,-0.0682,-0.0702,-0.0642,-0.0636,-0.0672,-0.067,-0.0668,-0.0666,-0.0665,0,0.0362,0.0378,0.0414,0.0436,0.0444,0.0462,0.0473,0.0445,0.0405,0.0284,0.0229,0.0097,-0.0047,-0.0255,-0.0425,-0.0596,-0.0613,-0.0648,-0.0668,-0.0618,-0.0634,-0.063,-0.0627,-0.0662,-0.0661,-0.0661,-0.066,0,0.0357,0.0389,0.0407,0.0483,0.0518,0.0524,0.0525,0.0498,0.0415,0.0408,0.0239,0.0114,-0.0056,-0.0254,-0.0346,-0.049,-0.0623,-0.0628,-0.0634,-0.0653,-0.0606,-0.0622,-0.0621,-0.0653,-0.0654,-0.0655,-0.0655,0,0.0369,0.0371,0.0437,0.0482,0.0557,0.0532,0.0519,0.0458,0.044,0.0295,0.0235,0.0054,-0.0048,-0.0198,-0.0323,-0.0408,-0.0446,-0.0473,-0.0488,-0.0497,-0.0422,-0.0335,-0.0307,0,0,0,0,0,0.0359,0.036,0.0417,0.0436,0.0523,0.0555,0.0527,0.0487,0.0406,0.0311,0.028,0.0118,-0.0061,-0.0166,-0.0238,-0.0304,-0.047,-0.0389,-0.0512,-0.0615,-0.0623,-0.0556,0,0,0,0,0,0,0.034,0.0391,0.04,0.0435,0.0449,0.0492,0.0478,0.0399,0.0327,0.0252,0.0152,0.0143,-0.0041,-0.0003,-0.0224,-0.0254,-0.0333,-0.0462,-0.0462,-0.061,-0.0618,-0.0624,-0.0558,0,0,0,0,0]}]]